Regional Weather Roundup
Issued by NWS

Home | Current Version | Previous Version | Text Only | Print | Product List | Glossary Off
Versions: 1 2 3 4 5 6 7 8 9 10 11 12 13 14 15 16 17 18 19 20 21 22 23 24 25 26 27 28 29 30 31 32 33 34 35 36 37 38 39 40 41 42 43 44 45 46 47 48 49 50

000
ASUS45 KPSR 210710
RWRAZ

ARIZONA HOURLY REGIONAL WEATHER ROUNDUP
NATIONAL WEATHER SERVICE PHOENIX AZ
1200 AM MST SAT JAN 21 2017

NOTE: FAIR INDICATES FEW OR NO CLOUDS BELOW 12,000 FEET WITH NO
SIGNIFICANT WEATHER AND/OR OBSTRUCTIONS TO VISIBILITY.

AZZ001>003-036-210800-
NORTHWEST ARIZONA

CITY           SKY/WX    TMP DP  RH WIND       PRES   REMARKS
BULLHEAD CITY  PTCLDY    54  45  71 S21       29.41F
KINGMAN        CLOUDY    42  39  89 SW25G38   29.39R
$$

AZZ004>008-015-016-018-210800-
NORTH CENTRAL ARIZONA

CITY           SKY/WX    TMP DP  RH WIND       PRES   REMARKS
GRAND CANYON   LGT SNOW  30  30 100 SW15      29.37F FOG     WCI  19
WILLIAMS       SNOW      30  28  93 S22G30    29.38F VSB 1/4 WCI  17
PRESCOTT       LGT SNOW  34  33  96 SW12      29.43F FOG     WCI  25
FLAGSTAFF      SNOW      30  29  96 SW20G28   29.38F VSB 1/2 WCI  17
PAYSON         LGT RAIN  36  36 100 S12G23    29.48F VSB 1   WCI  27
PAGE           LGT RAIN  39  31  72 S6        29.35F WCI  35
$$

AZZ009>014-017-210800-
NORTHEAST ARIZONA

CITY           SKY/WX    TMP DP  RH WIND       PRES   REMARKS
WINSLOW        MOCLDY    37  34  89 S15       29.40F WCI  28
SAINT JOHNS    CLOUDY    38  32  79 SW12      29.47F WCI  30
SHOW LOW       LGT SNOW  30  28  93 S14       29.48F VSB 3/4 WCI  20
$$

AZZ023-210800-
GREATER PHOENIX AREA

CITY           SKY/WX    TMP DP  RH WIND       PRES   REMARKS
PHOENIX        CLOUDY    52  48  86 S12       29.47S
BUCKEYE        CLOUDY    54  54 100 SW18G25   29.49F
LUKE AFB       LGT RAIN  52  52 100 S26G33    29.45F
DEER VALLEY    LGT RAIN  50  49  96 S8        29.47F
SCOTTSDALE     LGT RAIN  50  48  93 S9        29.49F
MESA-GATEWAY   SHOWER    52  46  82 S12G23    29.52F
$$

AZZ027-028-210800-
SOUTHWEST MARICOPA COUNTY AND PINAL COUNTY

CITY           SKY/WX    TMP DP  RH WIND       PRES   REMARKS
CASA GRANDE    MOCLDY    50  47  89 SW10      29.52F
$$

AZZ503-504-507>509-210800-
SOUTHEAST ARIZONA

CITY           SKY/WX    TMP DP  RH WIND       PRES   REMARKS
TUCSON         CLOUDY    50  44  80 S18G24    29.58F
DAVIS-MONTHAN  LGT RAIN  48  45  87 S10       29.57F
NOGALES        LGT RAIN  46  43  89 S17G26    29.60F
SIERRA VISTA   LGT RAIN  45  39  81 SW24G35   29.59F
DOUGLAS        CLOUDY    44  41  89 SE8       29.65F
SAFFORD        LGT RAIN  47  41  80 S12       29.57S
$$

AZZ020-021-025-026-031-210800-
SOUTHWEST ARIZONA

CITY           SKY/WX    TMP DP  RH WIND       PRES   REMARKS
YUMA           MOCLDY    54  45  71 W10       29.57S
$$

CAZ031-033-041-043-047-048-061-210800-
SOUTHERN CALIFORNIA

CITY           SKY/WX    TMP DP  RH WIND       PRES   REMARKS
DOWNTOWN L.A.  MOCLDY    53  44  71 MISG      29.59R
L.A. AIRPORT   MOCLDY    54  44  69 W24G33    29.59R
SAN DIEGO      PTCLDY    56  45  66 W17G24    29.66R
BURBANK        MOCLDY    50  40  68 NE6       29.57R
ONTARIO        MOCLDY    48  45  89 SW12      29.57R
RIVERSIDE      MOCLDY    50  45  83 W17G26    29.57
PALM SPRINGS   MOCLDY    51  49  92 CALM      29.52R
EL CENTRO NAS  MOCLDY    51  44  77 W6        29.58R
IMPERIAL       MOCLDY    52  44  74 SW9       29.56R
BLYTHE         PTCLDY    52  46  80 SW21      29.48R
NEEDLES        PTCLDY    54  44  69 SW5       29.44R
$$

NVZ020-UTZ003-210800-
SOUTHERN NEVADA-UTAH

CITY           SKY/WX    TMP DP  RH WIND       PRES   REMARKS
LAS VEGAS      PTCLDY    48  33  56 SW14      29.30R
SALT LAKE CITY CLOUDY    35  31  85 SE9       29.29F WCI  28
$$

NMZ009-TXZ055-210800-
NEW MEXICO-WEST TEXAS

CITY           SKY/WX    TMP DP  RH WIND       PRES   REMARKS
ALBUQUERQUE    CLOUDY    36  34  92 E5        29.57F WCI  32
EL PASO        MOCLDY    47  39  74 W5        29.67F
$$


........................KEY........................
SKY/WX - SKY CONDITION/WEATHER
TMP    - TEMPERATURE IN FAHRENHEIT
DP     - DEW POINT IN FAHRENHEIT
RH     - RELATIVE HUMIDITY IN PERCENT
WIND   - DIRECTION AND SPEED IN MILES PER HOUR (MPH)
VRB    - VARIABLE WIND DIRECTION
PRES   - MEAN SEA LEVEL PRESSURE IN INCHES OF MERCURY
         F - FALLING PRESSURE   R - RISING PRESSURE
         S - STEADY PRESSURE
VSB    - VISIBILITY IN MILES
HX     - HEAT INDEX IN FAHRENHEIT
WCI    - WIND CHILL INDEX IN FAHRENHEIT
TC     - TEMPERATURE IN CELSIUS WHICH IS ALSO KNOWN AS
         TEMPERATURE IN CENTIGRADE
AFB    - AIR FORCE BASE
         LUKE AFB IS LUKE AIR FORCE BASE
         DAVIS-MONTHAN IS DAVIS-MONTHAN AIR FORCE BASE
NAS    - NAVAL AIR STATION
         EL CENTRO NAS IS EL CENTRO NAVAL AIR STATION
N/A    - NOT AVAILABLE




USA.gov is the U.S. government's official web portal to all federal, state and local government web resources and services.